ANZ706 NSFA-AYPY

Flight info

Callsign ANZ706
Flight time N/A
Altitude 34000
Route ALAPI1S ALAPI B577 HOI DCT 13S75/N0452F360 DCT LEGOT B452 HN/N0445F380 B598 KAPKI DCT NUPTA NUPTA1
Aircraft A320/M-SDE3FGHIRWY/LB1

Departure

Time N/A
Airport Faleolo International Airport (NSFA)

Arrival

Time 2026-04-30 19:31
Airport Port Moresby Jacksons International Airport (AYPY)
Time Latitude Longitude Altitude Speed Heading
2026-04-30 14:01 -13.54964 -174.05351 30599 ft 442 kts 277°
2026-04-30 14:01 -13.54523 -174.08466 30966 ft 440 kts 277°
2026-04-30 14:01 -13.54086 -174.11574 31319 ft 438 kts 276°
2026-04-30 14:01 -13.53653 -174.14671 31670 ft 437 kts 276°
2026-04-30 14:02 -13.53222 -174.17763 32042 ft 436 kts 276°
2026-04-30 14:02 -13.52793 -174.20838 32401 ft 434 kts 276°
2026-04-30 14:02 -13.52362 -174.23905 32764 ft 432 kts 276°
2026-04-30 14:02 -13.51931 -174.26956 33121 ft 431 kts 276°
2026-04-30 14:03 -13.51498 -174.29996 33463 ft 429 kts 276°
2026-04-30 14:03 -13.51069 -174.33023 33785 ft 428 kts 276°
2026-04-30 14:03 -13.50643 -174.36047 33913 ft 428 kts 275°
2026-04-30 14:03 -13.50215 -174.39092 33934 ft 433 kts 276°
2026-04-30 14:04 -13.49340 -174.45236 33933 ft 435 kts 276°
2026-04-30 14:04 -13.48467 -174.51391 33935 ft 436 kts 276°
2026-04-30 14:05 -13.47594 -174.57553 33933 ft 436 kts 276°
2026-04-30 14:05 -13.46712 -174.63723 33933 ft 436 kts 276°
2026-04-30 14:06 -13.45391 -174.72975 33934 ft 436 kts 276°
2026-04-30 14:07 -13.44086 -174.82192 33936 ft 437 kts 276°
2026-04-30 14:08 -13.42764 -174.91443 33938 ft 437 kts 276°
2026-04-30 14:08 -13.41430 -175.00698 33935 ft 437 kts 276°
2026-04-30 14:09 -13.40538 -175.06865 33938 ft 437 kts 276°
2026-04-30 14:10 -13.39198 -175.16124 33940 ft 437 kts 276°
2026-04-30 14:10 -13.38308 -175.22300 33935 ft 437 kts 276°
2026-04-30 14:11 -13.37414 -175.28471 33929 ft 437 kts 276°
2026-04-30 14:11 -13.36521 -175.34645 33927 ft 437 kts 276°
2026-04-30 14:12 -13.35633 -175.40814 33925 ft 437 kts 276°
2026-04-30 14:12 -13.34744 -175.46947 33926 ft 437 kts 276°
2026-04-30 14:13 -13.33841 -175.53120 33931 ft 437 kts 276°
2026-04-30 14:13 -13.32934 -175.59293 33935 ft 437 kts 276°
2026-04-30 14:14 -13.32027 -175.65467 33938 ft 437 kts 276°
2026-04-30 14:14 -13.31128 -175.71633 33941 ft 437 kts 276°
2026-04-30 14:15 -13.30221 -175.77813 33949 ft 437 kts 277°
2026-04-30 14:15 -13.29314 -175.83978 33938 ft 437 kts 277°
2026-04-30 14:16 -13.28411 -175.90105 33937 ft 437 kts 277°
2026-04-30 14:16 -13.27496 -175.96268 33936 ft 436 kts 277°
2026-04-30 14:17 -13.26583 -176.02430 33936 ft 436 kts 277°
2026-04-30 14:17 -13.25674 -176.08584 33930 ft 436 kts 277°
2026-04-30 14:18 -13.24769 -176.14744 33928 ft 436 kts 277°
2026-04-30 14:18 -13.23924 -176.24018 33925 ft 435 kts 269°
2026-04-30 14:19 -13.23824 -176.33329 33925 ft 435 kts 269°
2026-04-30 14:20 -13.23758 -176.39546 33928 ft 435 kts 269°
2026-04-30 14:20 -13.23657 -176.48867 33927 ft 435 kts 269°
2026-04-30 14:21 -13.23585 -176.55086 33925 ft 436 kts 269°
2026-04-30 14:22 -13.23473 -176.64377 33928 ft 436 kts 269°
2026-04-30 14:22 -13.23358 -176.73719 33922 ft 437 kts 270°
2026-04-30 14:23 -13.23204 -176.86193 33925 ft 437 kts 269°
2026-04-30 14:24 -13.23090 -176.95548 33928 ft 437 kts 270°
2026-04-30 14:25 -13.22917 -177.08032 33929 ft 438 kts 270°
2026-04-30 14:26 -13.22793 -177.17400 33927 ft 437 kts 270°
2026-04-30 14:27 -13.22660 -177.26729 33930 ft 438 kts 270°
2026-04-30 14:27 -13.22567 -177.32972 33931 ft 437 kts 270°
2026-04-30 14:28 -13.22425 -177.42342 33926 ft 438 kts 270°
2026-04-30 14:28 -13.22333 -177.48593 33926 ft 438 kts 270°
2026-04-30 14:29 -13.22155 -177.60097 33927 ft 438 kts 270°
2026-04-30 14:31 -13.21906 -177.75697 33930 ft 438 kts 270°
2026-04-30 14:31 -13.21746 -177.85080 33930 ft 438 kts 270°
2026-04-30 14:32 -13.21599 -177.94469 33929 ft 439 kts 270°
2026-04-30 14:33 -13.21497 -178.00736 33930 ft 439 kts 270°
2026-04-30 14:33 -13.21329 -178.10142 33925 ft 440 kts 271°
2026-04-30 14:34 -13.21212 -178.16420 33927 ft 440 kts 270°
2026-04-30 14:34 -13.21100 -178.22701 33929 ft 440 kts 270°
2026-04-30 14:35 -13.20935 -178.32102 33928 ft 439 kts 270°
2026-04-30 14:36 -13.20820 -178.38376 33928 ft 439 kts 270°
2026-04-30 14:36 -13.20700 -178.44607 33924 ft 439 kts 271°
2026-04-30 14:37 -13.20578 -178.50882 33921 ft 440 kts 271°
2026-04-30 14:37 -13.20464 -178.57155 33918 ft 440 kts 271°
2026-04-30 14:38 -13.20342 -178.63434 33918 ft 440 kts 271°
2026-04-30 14:38 -13.20212 -178.69714 33921 ft 440 kts 271°
2026-04-30 14:39 -13.20083 -178.76006 33921 ft 441 kts 271°
2026-04-30 14:39 -13.19960 -178.82293 33920 ft 441 kts 271°
2026-04-30 14:40 -13.19764 -178.91689 33922 ft 441 kts 271°
2026-04-30 14:40 -13.19631 -178.97986 33924 ft 441 kts 271°
2026-04-30 14:41 -13.19502 -179.04286 33927 ft 441 kts 271°
2026-04-30 14:41 -13.19375 -179.10582 33924 ft 441 kts 271°
2026-04-30 14:42 -13.19234 -179.16880 33922 ft 442 kts 271°
2026-04-30 14:42 -13.19094 -179.23182 33924 ft 442 kts 271°
2026-04-30 14:43 -13.18956 -179.29486 33923 ft 442 kts 271°
2026-04-30 14:43 -13.18819 -179.35790 33925 ft 442 kts 271°
2026-04-30 14:44 -13.18681 -179.42092 33925 ft 442 kts 271°
2026-04-30 14:44 -13.18537 -179.48395 33925 ft 442 kts 271°
2026-04-30 14:45 -13.18394 -179.54651 33924 ft 441 kts 271°
2026-04-30 14:45 -13.18244 -179.60947 33923 ft 441 kts 271°
2026-04-30 14:46 -13.18096 -179.67250 33922 ft 441 kts 271°
2026-04-30 14:46 -13.17939 -179.73550 33923 ft 441 kts 271°
2026-04-30 14:47 -13.17787 -179.79847 33923 ft 441 kts 271°
2026-04-30 14:47 -13.17638 -179.86143 33924 ft 442 kts 271°
2026-04-30 14:48 -13.17487 -179.92443 33924 ft 442 kts 271°
2026-04-30 14:48 -13.17328 -179.98740 33924 ft 441 kts 271°
2026-04-30 14:49 -13.17174 179.94963 33923 ft 442 kts 271°
2026-04-30 14:49 -13.17017 179.88665 33925 ft 442 kts 272°
2026-04-30 14:50 -13.16762 179.79215 33924 ft 442 kts 272°
2026-04-30 14:51 -13.16524 179.69785 33924 ft 443 kts 271°
2026-04-30 14:52 -13.16284 179.60317 33927 ft 442 kts 272°
2026-04-30 14:52 -13.16022 179.50847 33927 ft 443 kts 272°
2026-04-30 14:53 -13.15766 179.41387 33925 ft 442 kts 272°
2026-04-30 14:54 -13.15425 179.28775 33922 ft 442 kts 272°
2026-04-30 14:55 -13.15153 179.19297 33931 ft 443 kts 272°
2026-04-30 14:56 -13.14793 179.06701 33935 ft 443 kts 272°
2026-04-30 14:57 -13.14527 178.97224 33936 ft 443 kts 272°
2026-04-30 14:58 -13.14165 178.84589 33936 ft 443 kts 272°
2026-04-30 14:58 -13.13881 178.75121 33936 ft 443 kts 272°
2026-04-30 15:00 -13.13408 178.59337 33937 ft 443 kts 272°
2026-04-30 15:01 -13.13016 178.46717 33949 ft 443 kts 272°
2026-04-30 15:01 -13.12730 178.37284 33941 ft 443 kts 272°
2026-04-30 15:02 -13.12530 178.30968 33947 ft 443 kts 272°
2026-04-30 15:03 -13.12033 178.15178 33946 ft 443 kts 272°
2026-04-30 15:04 -13.11514 177.99356 33955 ft 444 kts 272°
2026-04-30 15:06 -13.11000 177.83589 33965 ft 443 kts 273°
2026-04-30 15:07 -13.10577 177.70990 33959 ft 441 kts 273°
2026-04-30 15:08 -13.10145 177.58415 33943 ft 441 kts 273°
2026-04-30 15:09 -13.09604 177.42685 33935 ft 441 kts 273°
2026-04-30 15:10 -13.09159 177.30097 33927 ft 441 kts 273°
2026-04-30 15:11 -13.08486 177.11210 33927 ft 443 kts 273°
2026-04-30 15:13 -13.07907 176.95415 33925 ft 443 kts 273°
2026-04-30 15:14 -13.07081 176.73264 33923 ft 444 kts 273°
2026-04-30 15:17 -13.06014 176.44783 33926 ft 445 kts 273°
2026-04-30 15:19 -13.05051 176.20470 33928 ft 446 kts 273°
2026-04-30 17:39 -9.52380 159.18597 37920 ft 455 kts 265°
2026-04-30 17:42 -9.55645 158.86822 37920 ft 454 kts 265°
2026-04-30 17:43 -9.57144 158.72022 37921 ft 452 kts 264°
2026-04-30 17:44 -9.59069 158.53009 37919 ft 452 kts 265°
2026-04-30 17:47 -9.61913 158.24593 37920 ft 450 kts 265°
2026-04-30 17:48 -9.64131 158.02500 37922 ft 450 kts 265°
2026-04-30 17:50 -9.66609 157.77299 37924 ft 449 kts 265°
2026-04-30 17:52 -9.68475 157.58443 37927 ft 449 kts 265°
2026-04-30 17:54 -9.71224 157.30030 37926 ft 450 kts 265°
2026-04-30 17:56 -9.73685 157.04779 37923 ft 452 kts 265°
2026-04-30 17:58 -9.75511 156.85743 37924 ft 453 kts 265°
2026-04-30 18:00 -9.77932 156.60289 37921 ft 454 kts 266°
2026-04-30 18:01 -9.79436 156.44398 37929 ft 454 kts 266°
2026-04-30 18:02 -9.81246 156.25258 37936 ft 455 kts 266°
2026-04-30 18:04 -9.83041 156.06103 37933 ft 455 kts 267°
2026-04-30 18:06 -9.85415 155.80574 37943 ft 453 kts 266°
2026-04-30 18:08 -9.87463 155.58389 37942 ft 450 kts 266°
2026-04-30 18:10 -9.89774 155.33128 37945 ft 449 kts 266°
2026-04-30 18:11 -9.91783 155.11096 37951 ft 448 kts 266°
2026-04-30 18:13 -9.93203 154.95374 37949 ft 447 kts 266°
2026-04-30 18:14 -9.94619 154.79709 37950 ft 446 kts 266°
2026-04-30 18:15 -9.96310 154.60968 37953 ft 444 kts 266°
2026-04-30 18:16 -9.97416 154.48532 37954 ft 444 kts 266°
2026-04-30 18:17 -9.97972 154.42304 37957 ft 443 kts 266°
2026-04-30 18:18 -9.98810 154.32973 37957 ft 442 kts 266°
2026-04-30 18:18 -9.99361 154.26773 37959 ft 442 kts 266°
2026-04-30 18:19 -9.99908 154.20559 37964 ft 442 kts 266°
2026-04-30 18:19 -10.00451 154.14353 37957 ft 442 kts 266°
2026-04-30 18:20 -10.01006 154.08143 37961 ft 441 kts 266°
2026-04-30 18:20 -10.01555 154.01943 37953 ft 442 kts 266°
2026-04-30 18:21 -10.02105 153.95740 37951 ft 441 kts 266°
2026-04-30 18:21 -10.02651 153.89539 37951 ft 441 kts 266°
2026-04-30 18:22 -10.03183 153.83378 37956 ft 441 kts 266°
2026-04-30 18:22 -10.03986 153.74080 37952 ft 441 kts 266°
2026-04-30 18:23 -10.04527 153.67887 37960 ft 441 kts 266°
2026-04-30 18:23 -10.05072 153.61696 37958 ft 441 kts 266°
2026-04-30 18:24 -10.05878 153.52405 37961 ft 440 kts 266°
2026-04-30 18:25 -10.06404 153.46254 37954 ft 440 kts 266°
2026-04-30 18:25 -10.07205 153.36967 37963 ft 440 kts 266°
2026-04-30 18:26 -10.08026 153.27685 37962 ft 440 kts 266°
2026-04-30 18:27 -10.08825 153.18407 37954 ft 440 kts 266°
2026-04-30 18:28 -10.09617 153.09118 37957 ft 440 kts 266°
2026-04-30 18:28 -10.10421 152.99849 37961 ft 439 kts 266°
2026-04-30 18:29 -10.11477 152.87536 37960 ft 439 kts 266°
2026-04-30 18:30 -10.12455 152.76190 37967 ft 439 kts 266°
2026-04-30 18:31 -10.13240 152.66967 37968 ft 439 kts 266°
2026-04-30 18:32 -10.14028 152.57699 37970 ft 439 kts 266°
2026-04-30 18:33 -10.14806 152.48429 37965 ft 440 kts 266°
2026-04-30 18:33 -10.15580 152.39160 37969 ft 440 kts 266°
2026-04-30 18:34 -10.16348 152.29871 37961 ft 440 kts 266°
2026-04-30 18:35 -10.16852 152.23674 37969 ft 440 kts 266°
2026-04-30 18:35 -10.17354 152.17483 37970 ft 440 kts 266°
2026-04-30 18:36 -10.18110 152.08185 37969 ft 440 kts 266°
2026-04-30 18:37 -10.18852 151.98886 37970 ft 440 kts 266°
2026-04-30 18:37 -10.19347 151.92687 37969 ft 440 kts 266°
2026-04-30 18:38 -10.19842 151.86533 37972 ft 441 kts 266°
2026-04-30 18:38 -10.20337 151.80334 37975 ft 441 kts 266°
2026-04-30 18:39 -10.20829 151.74131 37979 ft 441 kts 266°
2026-04-30 18:39 -10.21318 151.67922 37978 ft 441 kts 266°
2026-04-30 18:40 -10.21810 151.61726 37967 ft 440 kts 266°
2026-04-30 18:40 -10.22300 151.55531 37970 ft 440 kts 266°
2026-04-30 18:41 -10.22793 151.49339 37972 ft 440 kts 266°
2026-04-30 18:41 -10.23279 151.43143 37983 ft 440 kts 266°
2026-04-30 18:42 -10.23766 151.36940 37996 ft 440 kts 266°
2026-04-30 18:42 -10.24487 151.27691 38001 ft 440 kts 266°
2026-04-30 18:45 -10.27127 150.93646 38004 ft 440 kts 266°
2026-04-30 18:46 -10.27602 150.87451 38008 ft 440 kts 266°
2026-04-30 18:46 -10.28082 150.81258 38010 ft 440 kts 266°
2026-04-30 18:47 -10.28555 150.75058 38008 ft 440 kts 266°
2026-04-30 18:47 -10.29030 150.68860 38009 ft 441 kts 266°
2026-04-30 18:48 -10.29500 150.62653 38009 ft 441 kts 266°
2026-04-30 18:48 -10.29968 150.56484 38011 ft 441 kts 266°
2026-04-30 18:49 -10.30436 150.50267 38009 ft 441 kts 266°
2026-04-30 18:49 -10.30906 150.44057 38008 ft 441 kts 266°
2026-04-30 18:50 -10.31384 150.37840 38010 ft 442 kts 266°
2026-04-30 18:50 -10.31377 150.31615 38009 ft 441 kts 272°
2026-04-30 18:51 -10.31190 150.25391 38010 ft 441 kts 272°
2026-04-30 18:51 -10.30998 150.19160 37991 ft 442 kts 272°
2026-04-30 18:52 -10.30812 150.12932 37969 ft 441 kts 272°
2026-04-30 18:52 -10.30636 150.06708 37960 ft 441 kts 272°
2026-04-30 18:53 -10.30454 150.00477 37969 ft 442 kts 272°
2026-04-30 18:53 -10.30260 149.94234 37975 ft 442 kts 272°
2026-04-30 18:54 -10.30064 149.87988 37976 ft 442 kts 272°
2026-04-30 18:54 -10.29876 149.81746 37974 ft 442 kts 272°
2026-04-30 18:55 -10.29691 149.75494 37978 ft 443 kts 272°
2026-04-30 18:55 -10.29397 149.66168 37973 ft 443 kts 272°
2026-04-30 18:56 -10.29101 149.56791 37977 ft 442 kts 272°
2026-04-30 18:57 -10.28814 149.47427 37978 ft 442 kts 272°
2026-04-30 18:57 -10.28617 149.41194 37978 ft 442 kts 272°
2026-04-30 18:58 -10.28314 149.31843 37979 ft 441 kts 273°
2026-04-30 18:59 -10.28004 149.22542 37978 ft 441 kts 273°
2026-04-30 19:00 -10.27609 149.10113 37978 ft 440 kts 273°
2026-04-30 19:01 -10.27202 148.97699 37980 ft 439 kts 273°
2026-04-30 19:02 -10.26892 148.88394 37978 ft 439 kts 273°
2026-04-30 19:03 -10.26467 148.75998 37977 ft 439 kts 273°
2026-04-30 19:04 -10.26052 148.63650 37743 ft 438 kts 273°
2026-04-30 19:04 -10.25846 148.57486 37239 ft 436 kts 273°
2026-04-30 19:05 -10.25626 148.51337 36746 ft 435 kts 273°
2026-04-30 19:05 -10.25412 148.45253 35917 ft 429 kts 272°
2026-04-30 19:06 -10.25205 148.39230 35013 ft 424 kts 272°
2026-04-30 19:06 -10.25101 148.36245 34555 ft 422 kts 272°
2026-04-30 19:06 -10.24321 148.30405 33630 ft 416 kts 288°
2026-04-30 19:07 -10.21706 148.25242 32697 ft 411 kts 306°
2026-04-30 19:07 -10.19994 148.22925 32241 ft 409 kts 306°
2026-04-30 19:08 -10.16607 148.18312 31340 ft 405 kts 306°
2026-04-30 19:08 -10.13260 148.13748 30477 ft 401 kts 306°
2026-04-30 19:08 -10.11599 148.11488 30053 ft 399 kts 306°
2026-04-30 19:09 -10.08321 148.07018 29229 ft 395 kts 306°
2026-04-30 19:09 -10.06689 148.04787 28831 ft 393 kts 306°
2026-04-30 19:09 -10.05060 148.02568 28440 ft 390 kts 306°
2026-04-30 19:10 -10.01836 147.98177 27651 ft 385 kts 306°
2026-04-30 19:10 -9.98651 147.93847 26867 ft 381 kts 306°
2026-04-30 19:11 -9.97071 147.91700 26464 ft 378 kts 307°
2026-04-30 19:11 -9.94079 147.87364 25626 ft 373 kts 301°
2026-04-30 19:11 -9.92743 147.85120 25229 ft 371 kts 301°
2026-04-30 19:12 -9.91408 147.82892 24796 ft 369 kts 302°
2026-04-30 19:12 -9.90072 147.80673 24374 ft 367 kts 302°
2026-04-30 19:12 -9.88745 147.78467 23937 ft 365 kts 302°
2026-04-30 19:13 -9.86114 147.74087 23081 ft 362 kts 302°
2026-04-30 19:13 -9.83503 147.69751 22222 ft 359 kts 302°
2026-04-30 19:13 -9.82207 147.67595 21800 ft 357 kts 302°
2026-04-30 19:14 -9.80919 147.65448 21374 ft 355 kts 302°
2026-04-30 19:14 -9.79638 147.63315 20951 ft 353 kts 302°
2026-04-30 19:14 -9.78363 147.61191 20530 ft 352 kts 302°
2026-04-30 19:14 -9.77089 147.59073 20098 ft 350 kts 302°
2026-04-30 19:15 -9.75822 147.56969 19702 ft 348 kts 302°
2026-04-30 19:15 -9.73340 147.52837 18925 ft 344 kts 302°
2026-04-30 19:15 -9.72102 147.50771 18508 ft 342 kts 302°
2026-04-30 19:16 -9.70868 147.48714 18096 ft 341 kts 302°
2026-04-30 19:16 -9.69636 147.46667 17686 ft 339 kts 302°
2026-04-30 19:16 -9.67184 147.42602 16864 ft 337 kts 302°
2026-04-30 19:17 -9.65965 147.40582 16470 ft 336 kts 302°
2026-04-30 19:17 -9.63542 147.36555 15661 ft 333 kts 302°
2026-04-30 19:17 -9.62340 147.34554 15264 ft 332 kts 302°
2026-04-30 19:18 -9.60750 147.31916 14740 ft 330 kts 302°
2026-04-30 19:18 -9.59149 147.29266 14209 ft 328 kts 302°
2026-04-30 19:18 -9.57573 147.26657 13685 ft 327 kts 302°
2026-04-30 19:19 -9.56390 147.24697 13288 ft 326 kts 302°
2026-04-30 19:19 -9.55212 147.22742 12900 ft 324 kts 302°
2026-04-30 19:19 -9.52874 147.18861 12108 ft 322 kts 302°
2026-04-30 19:20 -9.52079 147.17543 11843 ft 321 kts 302°
2026-04-30 19:20 -9.50931 147.15643 11454 ft 320 kts 302°
2026-04-30 19:20 -9.47883 147.12476 10668 ft 314 kts 330°
2026-04-30 19:21 -9.46013 147.11333 10269 ft 313 kts 330°
2026-04-30 19:21 -9.42320 147.09064 9718 ft 304 kts 329°
2026-04-30 19:22 -9.38735 147.06845 8873 ft 299 kts 329°
2026-04-30 19:22 -9.33462 147.03587 7573 ft 295 kts 330°
2026-04-30 19:23 -9.28222 147.00363 6468 ft 290 kts 330°
2026-04-30 19:24 -9.24495 146.99551 5700 ft 278 kts 18°
2026-04-30 19:24 -9.22836 147.00503 5284 ft 276 kts 46°
2026-04-30 19:24 -9.20750 147.03696 4553 ft 273 kts 64°
2026-04-30 19:25 -9.22304 147.08583 3515 ft 262 kts 147°
2026-04-30 19:26 -9.25238 147.10398 3148 ft 233 kts 148°
2026-04-30 19:26 -9.27860 147.11995 2933 ft 211 kts 147°
2026-04-30 19:26 -9.29110 147.12762 2842 ft 208 kts 148°
2026-04-30 19:27 -9.31489 147.14222 2671 ft 195 kts 147°
2026-04-30 19:27 -9.33775 147.15634 2264 ft 188 kts 147°
2026-04-30 19:28 -9.34876 147.16314 2003 ft 182 kts 147°
2026-04-30 19:28 -9.36983 147.17616 1520 ft 173 kts 148°
2026-04-30 19:29 -9.38939 147.18824 1099 ft 153 kts 148°
2026-04-30 19:29 -9.39827 147.19373 891 ft 146 kts 147°
2026-04-30 19:30 -9.42335 147.20923 334 ft 137 kts 148°
2026-04-30 19:30 -9.43806 147.21834 129 ft 73 kts 149°
2026-04-30 19:31 -9.44185 147.22068 128 ft 23 kts 149°
2026-04-30 19:31 -9.44329 147.22156 128 ft 21 kts 148°
2026-04-30 19:31 -9.44490 147.22187 128 ft 14 kts 236°
2026-04-30 19:32 -9.44548 147.22093 123 ft 17 kts 238°
2026-04-30 19:32 -9.44602 147.22007 128 ft 13 kts 238°
2026-04-30 19:32 -9.44649 147.21929 124 ft 13 kts 238°
2026-04-30 19:32 -9.44612 147.21870 127 ft 12 kts 334°
2026-04-30 19:33 -9.44529 147.21821 128 ft 15 kts 328°
2026-04-30 19:33 -9.44433 147.21761 128 ft 17 kts 329°
2026-04-30 19:33 -9.44328 147.21696 126 ft 17 kts 328°
2026-04-30 19:33 -9.44247 147.21644 123 ft 12 kts 329°
2026-04-30 19:34 -9.44166 147.21596 128 ft 15 kts 329°
2026-04-30 19:34 -9.44067 147.21537 123 ft 18 kts 329°
2026-04-30 19:34 -9.43975 147.21481 128 ft 6 kts 326°
2026-04-30 19:35 -9.43934 147.21453 123 ft 9 kts 326°
2026-04-30 19:35 -9.43876 147.21414 124 ft 11 kts 326°
2026-04-30 19:35 -9.43849 147.21343 124 ft 13 kts 239°
2026-04-30 19:35 -9.43900 147.21262 131 ft 13 kts 237°
2026-04-30 19:36 -9.43919 147.21233 128 ft 0 kts 237°
2026-04-30 19:36 -9.43921 147.21231 128 ft 0 kts 237°